[[{"header":{"parameterUnit":"m.s-1","parameterCategory":1,"la1":30.2991,"la2":30.254,"lo1":-89.0895,"lo2":-89.0444,"dy":0.0017,"dx":0.0017,"nx":28,"ny":28,"refTime":"2024-09-26T09:00:00:Z","depth":0,"parameterNumber":2,"parameterNumberName":"U-component_of_WINDS"},"data":[0,0,0,0,0,0,0,0,0,0,0,0,0,0,0,0,0,0,0,0,0,0,0,0,0,0,0,0,0,0,0,0,0,0,0,0,0,0,0,0,0,0,0,0,0,0,0,0,0,0,0,0,0,0,0,0,0,0,5.466,5.4661,0,5.4778,5.478,5.4781,5.4737,5.4734,5.4731,5.4729,5.4851,5.4856,5.4862,0,0,0,0,0,0,0,0,0,0,0,0,0,5.4397,5.4402,5.466,5.4661,5.4663,5.4778,5.478,5.4781,5.4737,5.4734,5.473,5.4727,5.4849,5.4856,5.4862,0,0,0,0,0,0,0,0,0,0,0,0,0,5.4513,5.4403,5.4659,5.4654,5.4655,5.4778,5.478,5.4782,5.4738,5.4734,5.473,5.4726,5.4846,5.4855,5.4863,5.4998,0,0,5.489,5.4894,0,0,0,0,0,0,0,0,5.4506,5.4522,5.4654,5.4655,5.4656,5.4738,5.4732,5.4854,5.4739,5.4706,5.4728,5.4724,5.4817,5.4828,5.4859,5.5004,5.5009,5.4891,5.4896,5.49,5.4902,0,0,0,0,0,0,0,5.4498,5.4517,5.4707,5.4656,5.4657,5.4647,5.4659,5.4755,5.4783,5.4709,5.4706,5.4721,5.4816,5.485,5.4861,5.5011,5.489,5.4898,5.4903,5.4907,5.5276,5.528,0,0,0,0,0,0,5.449,5.4511,5.4703,5.471,5.457,5.4655,5.4668,5.4716,5.4782,5.4788,5.4724,5.4718,5.4838,5.4851,5.4865,5.5029,5.49,5.4908,5.4913,5.5271,5.5277,5.5282,0,0,0,0,0,0,5.4484,5.4507,5.4698,5.461,5.4633,5.4664,5.4718,5.4721,5.4754,5.4793,5.4798,5.4753,5.4835,5.4853,5.4966,5.5033,5.4912,5.4919,5.5266,5.5273,5.5279,5.5358,0,0,0,0,0,0,5.4477,5.4505,5.4556,5.4611,5.4638,5.4796,5.4722,5.4726,5.4769,5.4763,5.4822,5.4828,5.4833,5.4954,5.4975,5.5043,5.4926,5.526,5.5269,5.5277,5.5349,5.5366,5.5381,0,0,0,0,0,5.4467,5.4573,5.4559,5.4582,5.4702,5.48,5.4816,5.482,5.4775,5.4827,5.4852,5.4826,5.5022,5.4965,5.4989,5.5061,5.5256,5.5267,5.5277,5.5342,5.5363,5.5381,0,0,0,0,0,0,5.4525,5.458,5.4565,5.4692,5.4742,5.4793,5.4858,5.4841,5.4905,5.4896,5.4898,5.4912,5.5029,5.5056,5.4992,5.5196,5.5132,5.5148,5.5174,5.5194,5.521,5.5201,5.4933,0,0,0,0,0,5.4552,5.4627,5.4671,5.4778,5.4804,5.4827,5.487,5.4869,5.4921,5.4942,5.4975,5.5027,5.51,5.5149,5.5218,5.5353,5.5366,5.5414,5.543,5.5443,5.5456,5.5532,5.5554,5.5316,5.5316,5.5316,0,0,5.4609,5.4649,5.4696,5.4791,5.483,5.4908,5.4845,5.493,5.4988,5.4955,5.5064,5.509,5.5149,5.5274,5.533,5.53,5.5525,5.5456,5.5466,5.5473,5.5545,5.5567,5.5587,5.5323,5.5322,5.5321,0,0,5.4754,5.4791,5.4885,5.4926,5.4985,5.5,5.5023,5.5077,5.5094,5.5204,5.5181,5.525,5.5376,5.5419,5.5458,5.5622,5.5601,5.5644,5.5727,5.5801,5.582,5.5837,5.5897,5.5918,5.5658,5.5658,5.5658,0,5.4818,5.4934,5.4936,5.5024,5.5067,5.5041,5.5137,5.5177,5.5256,5.5287,5.5251,5.5411,5.5448,5.5584,5.5624,5.5655,5.5683,5.5638,5.5817,5.5834,5.5849,5.5907,5.5929,5.5663,5.5662,5.5662,5.5661,0,5.501,5.5092,5.5161,5.5239,5.529,5.5382,5.5399,5.5451,5.5446,5.5465,5.5578,5.5622,5.5701,5.5733,5.5729,5.587,5.5849,5.5815,5.5752,5.5877,5.5931,5.5953,5.567,5.5668,5.5667,5.5665,0,0,5.5193,5.5273,5.5299,5.5335,5.54,5.5463,5.5554,5.5632,5.5677,5.5733,5.5811,5.592,5.589,5.5933,5.5934,5.5998,5.6128,5.5957,5.5958,5.5989,5.6288,5.6314,5.6339,5.6114,5.6118,5.6122,5.6284,0,5.5344,5.5504,5.551,5.5657,5.5733,5.571,5.579,5.5839,5.586,5.5928,5.5951,5.6029,5.5982,5.6009,5.6072,5.6099,5.6188,5.6087,5.6188,5.6191,5.6175,5.6367,5.6394,5.6545,5.6305,5.6308,5.6311,0,5.5542,5.5605,5.576,5.5816,5.5848,5.592,5.5993,5.6058,5.6114,5.6124,5.6175,5.6166,5.6261,5.6194,5.6326,5.6257,5.6299,5.6318,5.6324,5.6335,5.6259,5.6384,5.6593,5.6616,5.6344,5.6341,5.6339,0,5.5662,5.5786,5.5895,5.5926,5.5994,5.6045,5.6076,5.6128,5.6175,5.6239,5.627,5.6344,5.6385,5.6443,5.6456,5.6405,5.6588,5.6522,5.6601,5.6601,5.6641,5.6638,5.6861,5.6666,5.6666,5.6665,5.6665,0,5.5831,5.5927,5.595,5.6018,5.6125,5.6131,5.6237,5.6264,5.6311,5.6384,5.6368,5.6437,5.6449,5.6521,5.6531,5.664,5.6658,5.6671,5.6673,5.6673,5.6672,5.6701,5.6691,5.6671,5.667,5.6669,5.6668,0,5.5984,5.6003,5.6121,5.6176,5.6192,5.6269,5.6316,5.6381,5.6401,5.6494,5.6516,5.6547,5.6631,5.6649,5.6748,5.6756,5.6885,5.6876,5.6867,5.6866,5.6945,5.6938,5.7195,5.723,5.7011,5.7013,5.7015,0,5.609,5.6164,5.6227,5.6275,5.6309,5.6386,5.6434,5.6443,5.6494,5.6565,5.6622,5.6705,5.6771,5.6907,5.6939,5.7016,5.7009,5.7094,5.7021,5.702,5.7013,5.7009,5.7017,5.7108,5.7111,5.7113,5.7114,0,5.6279,5.6285,5.6356,5.6431,5.6489,5.6548,5.6604,5.6644,5.6661,5.672,5.6806,5.6858,5.6961,5.7043,5.7121,5.7153,5.7138,5.7137,5.716,5.7161,5.7154,5.7161,5.6906,5.7131,5.713,5.7128,5.7127,5.7127,5.6413,5.6478,5.6534,5.6613,5.6657,5.671,5.6775,5.6803,5.6875,5.6959,5.696,5.7055,5.7111,5.7213,5.7251,5.7326,5.7299,5.7332,5.734,5.7348,5.7356,5.7141,5.7339,5.7339,5.7338,5.7338,5.7338,0,5.6602,5.6637,5.671,5.679,5.6853,5.6833,5.6895,5.6949,5.7032,5.7086,5.7152,5.7252,5.7333,5.7372,5.7452,5.7505,5.75,5.7526,5.7523,5.7531,5.7374,5.7347,5.7529,5.7529,5.7529,5.7529,5.7528,5.7528,5.6708,5.6818,5.6831,5.6963,5.6997,5.709,5.7127,5.7177,5.722,5.7333,5.74,5.7425,5.7473,5.7557,5.7631,5.764,5.7671,5.7701,5.7707,5.7561,5.7541,5.7523,5.7498,5.7708,5.7708,5.7858,5.7859,5.786]},{"header":{"parameterUnit":"m.s-1","parameterCategory":1,"la1":30.2991,"la2":30.254,"lo1":-89.0895,"lo2":-89.0444,"dy":0.0017,"dx":0.0017,"nx":28,"ny":28,"refTime":"2024-09-26T09:00:00:Z","depth":0,"parameterNumber":3,"parameterNumberName":"V-component_of_WINDS"},"data":[0,0,0,0,0,0,0,0,0,0,0,0,0,0,0,0,0,0,0,0,0,0,0,0,0,0,0,0,0,0,0,0,0,0,0,0,0,0,0,0,0,0,0,0,0,0,0,0,0,0,0,0,0,0,0,0,0,0,-1.4578,-1.4578,0,-1.4618,-1.4619,-1.4619,-1.4609,-1.4608,-1.4608,-1.4607,-1.4649,-1.4651,-1.4653,0,0,0,0,0,0,0,0,0,0,0,0,0,-1.4493,-1.4495,-1.4578,-1.4578,-1.4579,-1.4618,-1.4619,-1.4619,-1.4609,-1.4608,-1.4607,-1.4606,-1.4648,-1.465,-1.4653,0,0,0,0,0,0,0,0,0,0,0,0,0,-1.4532,-1.4495,-1.4578,-1.4579,-1.4579,-1.4618,-1.4619,-1.462,-1.4609,-1.4608,-1.4607,-1.4606,-1.4648,-1.465,-1.4653,-1.4694,0,0,-1.4662,-1.4663,0,0,0,0,0,0,0,0,-1.4529,-1.4535,-1.4578,-1.4579,-1.4579,-1.4607,-1.4604,-1.4645,-1.461,-1.4598,-1.4607,-1.4605,-1.4636,-1.464,-1.465,-1.4696,-1.4698,-1.4662,-1.4663,-1.4665,-1.4665,0,0,0,0,0,0,0,-1.4527,-1.4533,-1.4594,-1.4579,-1.4579,-1.4577,-1.4582,-1.4612,-1.4623,-1.4599,-1.4598,-1.4603,-1.4636,-1.4647,-1.4651,-1.4698,-1.4662,-1.4664,-1.4666,-1.4667,-1.4782,-1.4783,0,0,0,0,0,0,-1.4523,-1.4531,-1.4593,-1.4595,-1.4551,-1.458,-1.4584,-1.46,-1.4623,-1.4625,-1.4604,-1.4603,-1.4643,-1.4648,-1.4652,-1.4703,-1.4665,-1.4667,-1.4669,-1.4781,-1.4782,-1.4784,0,0,0,0,0,0,-1.4522,-1.4529,-1.4591,-1.4563,-1.4571,-1.4583,-1.46,-1.4601,-1.4612,-1.4627,-1.4629,-1.4613,-1.4642,-1.4648,-1.4684,-1.4704,-1.4668,-1.4671,-1.4779,-1.4781,-1.4783,-1.4804,0,0,0,0,0,0,-1.4519,-1.4528,-1.4544,-1.4563,-1.4572,-1.4622,-1.4601,-1.4603,-1.4617,-1.4615,-1.4636,-1.4638,-1.4642,-1.468,-1.4687,-1.4708,-1.4673,-1.4777,-1.478,-1.4782,-1.4802,-1.4807,-1.4811,0,0,0,0,0,-1.4516,-1.4548,-1.4545,-1.4552,-1.4591,-1.4623,-1.4628,-1.4631,-1.4618,-1.4634,-1.4644,-1.4638,-1.4701,-1.4684,-1.4691,-1.4713,-1.4776,-1.4779,-1.4782,-1.48,-1.4806,-1.4811,0,0,0,0,0,0,-1.453,-1.455,-1.4547,-1.4585,-1.4603,-1.4621,-1.4641,-1.4637,-1.4658,-1.4656,-1.4659,-1.4664,-1.4701,-1.4711,-1.4691,-1.4755,-1.4737,-1.4742,-1.4747,-1.4753,-1.4758,-1.4755,-1.4676,0,0,0,0,0,-1.4538,-1.4561,-1.4578,-1.461,-1.4619,-1.4629,-1.4642,-1.4644,-1.4661,-1.4669,-1.4681,-1.4699,-1.4723,-1.4738,-1.4761,-1.4803,-1.4808,-1.4822,-1.4827,-1.483,-1.4834,-1.4859,-1.4866,-1.4794,-1.4794,-1.4794,0,0,-1.4554,-1.4568,-1.4582,-1.4613,-1.4627,-1.4652,-1.4635,-1.4661,-1.468,-1.4673,-1.4707,-1.4717,-1.4737,-1.4777,-1.4795,-1.4786,-1.4855,-1.4834,-1.4837,-1.4839,-1.4863,-1.4869,-1.4876,-1.4796,-1.4796,-1.4795,0,0,-1.4595,-1.4608,-1.4637,-1.4651,-1.4671,-1.4678,-1.4685,-1.4704,-1.4711,-1.4745,-1.4741,-1.4763,-1.4804,-1.482,-1.4833,-1.4882,-1.4877,-1.4889,-1.4913,-1.4937,-1.4943,-1.4948,-1.4966,-1.4973,-1.4893,-1.4893,-1.4893,0,-1.4613,-1.4649,-1.4652,-1.468,-1.4695,-1.4689,-1.4719,-1.4733,-1.476,-1.477,-1.476,-1.4812,-1.4826,-1.4869,-1.4881,-1.4892,-1.4901,-1.4887,-1.4942,-1.4947,-1.4951,-1.4969,-1.4976,-1.4895,-1.4894,-1.4894,-1.4894,0,-1.467,-1.4696,-1.4717,-1.4744,-1.4761,-1.4789,-1.4797,-1.4814,-1.4814,-1.4822,-1.4859,-1.4874,-1.4901,-1.4911,-1.4911,-1.4955,-1.495,-1.494,-1.4922,-1.496,-1.4976,-1.4983,-1.4897,-1.4896,-1.4896,-1.4895,0,0,-1.4721,-1.475,-1.4758,-1.477,-1.4793,-1.4814,-1.4843,-1.4869,-1.4884,-1.4903,-1.4928,-1.4964,-1.4956,-1.4971,-1.4973,-1.4993,-1.5033,-1.4982,-1.4983,-1.4992,-1.5084,-1.5091,-1.5099,-1.503,-1.5031,-1.5032,-1.5083,0,-1.4766,-1.4817,-1.4821,-1.4867,-1.4892,-1.4887,-1.4913,-1.493,-1.4939,-1.4961,-1.4971,-1.4996,-1.4983,-1.4993,-1.5013,-1.5024,-1.5052,-1.502,-1.5054,-1.5056,-1.505,-1.5108,-1.5115,-1.5162,-1.5089,-1.509,-1.5091,0,-1.4824,-1.4846,-1.4894,-1.4915,-1.4926,-1.4948,-1.4973,-1.4995,-1.5015,-1.502,-1.5037,-1.5037,-1.5068,-1.5048,-1.5092,-1.507,-1.5084,-1.5092,-1.5094,-1.5098,-1.5076,-1.5114,-1.5176,-1.5184,-1.5101,-1.51,-1.51,0,-1.4858,-1.4899,-1.4934,-1.4944,-1.4969,-1.4986,-1.4997,-1.5015,-1.5031,-1.5054,-1.5064,-1.509,-1.5104,-1.5124,-1.5131,-1.5116,-1.5175,-1.5155,-1.518,-1.518,-1.5193,-1.5192,-1.526,-1.5201,-1.5201,-1.5201,-1.5201,0,-1.4908,-1.4938,-1.4949,-1.4971,-1.5005,-1.501,-1.5044,-1.5054,-1.5071,-1.5095,-1.5093,-1.5116,-1.5123,-1.5148,-1.5153,-1.5189,-1.5195,-1.5201,-1.5202,-1.5202,-1.5201,-1.5211,-1.5209,-1.5203,-1.5202,-1.5202,-1.5202,0,-1.4951,-1.496,-1.4998,-1.5018,-1.5024,-1.5049,-1.5067,-1.5088,-1.5096,-1.5127,-1.5134,-1.5148,-1.5177,-1.5185,-1.522,-1.5224,-1.5266,-1.5264,-1.5259,-1.526,-1.5285,-1.5283,-1.5362,-1.5373,-1.5306,-1.5307,-1.5307,0,-1.4983,-1.5006,-1.5029,-1.5045,-1.5057,-1.5083,-1.5099,-1.5105,-1.5123,-1.5148,-1.5167,-1.5195,-1.5218,-1.5264,-1.5278,-1.5304,-1.5304,-1.533,-1.5308,-1.5307,-1.5305,-1.5304,-1.5307,-1.5334,-1.5335,-1.5335,-1.5336,0,-1.5038,-1.5042,-1.5065,-1.5091,-1.5111,-1.5131,-1.5151,-1.5164,-1.5173,-1.5193,-1.5222,-1.524,-1.5276,-1.5305,-1.5333,-1.5345,-1.5342,-1.5342,-1.535,-1.535,-1.5347,-1.535,-1.5272,-1.5341,-1.534,-1.534,-1.5339,-1.5339,-1.5078,-1.5099,-1.5119,-1.5145,-1.5161,-1.518,-1.5201,-1.5212,-1.5237,-1.5266,-1.5269,-1.5301,-1.5322,-1.5358,-1.5372,-1.5398,-1.5391,-1.5401,-1.5404,-1.5407,-1.5409,-1.5342,-1.5403,-1.5403,-1.5403,-1.5403,-1.5403,0,-1.5134,-1.5147,-1.5171,-1.5199,-1.5221,-1.5216,-1.5238,-1.5257,-1.5285,-1.5304,-1.5327,-1.5362,-1.539,-1.5406,-1.5434,-1.5452,-1.5452,-1.546,-1.5459,-1.5462,-1.5414,-1.5405,-1.546,-1.546,-1.546,-1.546,-1.546,-1.5459,-1.5166,-1.5201,-1.5207,-1.5251,-1.5264,-1.5296,-1.5309,-1.5327,-1.5342,-1.5381,-1.5404,-1.5414,-1.5433,-1.5463,-1.5489,-1.5493,-1.5504,-1.5513,-1.5516,-1.5471,-1.5465,-1.546,-1.5452,-1.5515,-1.5515,-1.5563,-1.5563,-1.5564]}]]